Flag for Slovakia Weather past 2 weeks in Bratislava, Slovakia

Now
52 °F

Clear.


Feels Like: 48 °F
Forecast: 46 / 66 °F
Wind: 12 mph from North

Location: Bratislava Ivanka

Current Time: May 28, 2015 at 12:47:57 AM

Latest Report: May 28, 2015 at 12:00 AM


Visibility: 10 mi

Pressure: 30.12 "Hg

Humidity: 62%

Dew point: 39 °F

Location of BratislavaLocation

Historic Weather in Bratislava — Graph

°F

Bratislava temperature yesterday

Maximum temperature yesterday: 59 °F (at 11:00 AM)
Minimum temperature yesterday: 50 °F (at 5:00 AM)
Average temperature yesterday: 55 °F

Past Weeks' High & Low Weather Summary

 TemperatureHumidityPressure
High77 °F (May 19, 2:00 PM)94% (May 14, 4:30 AM)30.21 "Hg (May 14, 4:30 AM)
Low45 °F (May 18, 5:30 AM)27% (May 16, 6:00 PM)29.71 "Hg (May 14, 4:30 AM)
Average59 °F70%29.96 "Hg
* Reported May 12 11:00 PM — May 27 11:30 PM, Bratislava, Weather by CustomWeather, © 2015

Note: Actual official high and low records may vary slightly from our data, if they occured in-between our weather recording intervals... More about our weather records

Advertising

Bratislava weather history for previous 24 hours

 ConditionsComfort  
Time TempWeatherWind HumidityBarometerVisibility
11:30 PM
Wed, May 27
52 °FClear.12 mph62%30.12 "Hg10 mi
11:00 PM52 °FClear.14 mph62%30.09 "Hg10 mi
10:30 PM52 °FClear.17 mph58%30.09 "Hg10 mi
10:00 PM54 °FClear.15 mph54%30.09 "Hg10 mi
9:30 PM54 °FPassing clouds.13 mph54%30.09 "HgN/A
9:00 PM54 °FSunny.15 mph51%30.09 "Hg10 mi
8:30 PM54 °FPassing clouds.13 mph51%30.07 "HgN/A
8:00 PM55 °FPassing clouds.18 mph44%30.07 "HgN/A
7:30 PM57 °FPassing clouds.14 mph44%30.07 "HgN/A
7:00 PM57 °FPassing clouds.16 mph44%30.04 "HgN/A
6:30 PM59 °FScattered clouds.15 mph45%30.04 "HgN/A
6:00 PM59 °FPartly sunny.17 mph51%30.04 "HgN/A
5:30 PM59 °FPartly sunny.18 mph48%30.04 "HgN/A
5:00 PM57 °FPartly sunny.18 mph48%30.04 "HgN/A
4:30 PM59 °FPartly sunny.17 mph48%30.04 "HgN/A
4:00 PM57 °FPartly sunny.18 mph48%30.04 "HgN/A
3:30 PM55 °FPartly sunny.22 mph59%30.07 "HgN/A
3:00 PM55 °FScattered clouds.18 mph59%30.07 "HgN/A
2:30 PM54 °FBroken clouds.17 mph58%30.07 "HgN/A
2:00 PM57 °FPartly sunny.18 mph51%30.07 "HgN/A
1:30 PM57 °FPartly sunny.16 mph55%30.07 "HgN/A
1:00 PM57 °FPartly sunny.21 mph55%30.07 "HgN/A
12:30 PM57 °FPartly sunny.23 mph55%30.04 "HgN/A
12:00 PM57 °FPartly sunny.20 mph55%30.04 "HgN/A
11:30 AM57 °FPartly sunny.21 mph51%30.04 "HgN/A
11:00 AM59 °FScattered clouds.21 mph59%30.04 "HgN/A
10:30 AM57 °FScattered clouds.18 mph55%30.04 "HgN/A
10:00 AM57 °FScattered clouds.21 mph59%30.04 "HgN/A
9:30 AM55 °FPartly sunny.21 mph59%30.04 "HgN/A
9:00 AM54 °FPartly sunny.20 mph63%30.04 "HgN/A
8:30 AM55 °FScattered clouds.18 mph59%30.01 "HgN/A
8:00 AM55 °FPassing clouds.22 mph59%30.01 "HgN/A
7:30 AM52 °FPassing clouds.17 mph67%30.01 "HgN/A
7:00 AM50 °FPassing clouds.17 mph71%30.01 "HgN/A
6:30 AM50 °FPassing clouds.18 mph71%30.01 "HgN/A
6:00 AM50 °FPassing clouds.16 mph76%30.01 "HgN/A
5:30 AM50 °FPassing clouds.13 mph76%29.98 "HgN/A
5:00 AM50 °FPassing clouds.14 mph71%29.98 "HgN/A
4:30 AM52 °FPassing clouds.13 mph72%29.98 "HgN/A
4:00 AM52 °FClear.14 mph72%29.95 "Hg10 mi
3:30 AM54 °FClear.15 mph72%29.98 "Hg10 mi
3:00 AM54 °FClear.16 mph72%29.95 "Hg10 mi
2:30 AM54 °FClear.15 mph72%29.95 "Hg10 mi
2:00 AM54 °FClear.13 mph72%29.95 "Hg10 mi
1:30 AM54 °FClear.13 mph72%29.95 "Hg10 mi
1:00 AM54 °FPassing clouds.15 mph72%29.95 "HgN/A
12:30 AM54 °FPassing clouds.17 mph72%29.95 "HgN/A
12:00 AM54 °FLight rain. Partly cloudy.16 mph77%29.95 "HgN/A
Weather by CustomWeather, © 2015

See weather overviewHow to use our weather pages